User: anonymous   Login
Location: Unspecified
(0.0000°N, 0.0000°E)
Time: 05:57:36
(UTC+00:00)
Language:

STUDSAT - Orbit

View from above orbital plane
View from above orbital plane
View from above satellite
View from above satellite

Ground track
Ground track

The orbit is defined by the following mean orbital elements,

1 36796U          26150.71796639 +.00000000 +00000-0 +36542-3 0 00009
2 36796  98.0969  56.8311 0013049  91.0557 269.2163 15.04754072    06
Epoch (UTC): 30 May 2026 17:13:52
Eccentricity: 0.0013049
inclination: 98.0969°
perigee height: 543 km
apogee height: 561 km
right ascension of ascending node: 56.8311°
argument of perigee: 91.0557°
revolutions per day: 15.04754072
mean anomaly at epoch: 269.2163°

The dashed part of the orbit path shows where the satellite is in the earth's shadow,  

DLR